Regional Weather Roundup
Issued by NWS Upton, NY

Current Version | Previous Version | Text Only | Print | Product List | Glossary Off
Versions: 1 2 3 4 5 6 7 8 9 10 11 12 13 14 15 16 17 18 19 20 21 22 23 24 25 26 27

000
ASUS41 KOKX 292308
RWROKX

REGIONAL WEATHER ROUNDUP
NATIONAL WEATHER SERVICE NEW YORK NY
700 PM EDT SAT APR 29 2017

NOTE: "FAIR" INDICATES FEW OR NO CLOUDS BELOW 12,000 FEET WITH NO
SIGNIFICANT WEATHER AND/OR OBSTRUCTIONS TO VISIBILITY.

NYZ071-072-176-178-NJZ106-104-300000-
NEW YORK CITY METRO AREA

CITY           SKY/WX    TMP DP  RH WIND       PRES   REMARKS
Central Park   CLOUDY    80  57  45 W3G18     30.00S
Wall St Helipt MOCLDY    79  57  47 VRB6      29.98S
Bronx Bot Gard   N/A     81  55  41 W17       30.00R
LaGuardia APRT CLOUDY    83  57  41 W12G22    29.96F
Kennedy INTL   CLOUDY    83  59  44 W16G23    29.98F
Breezy Point     N/A     75 N/A N/A W8G17       N/A
Newark/Liberty MOCLDY    81  58  45 W15       29.98S
Teterboro      CLOUDY    80  58  46 NW12      29.97R
$$

NYZ177-179-078>081-300000-
LONG ISLAND NEW YORK

CITY           SKY/WX    TMP DP  RH WIND       PRES   REMARKS
Jones Beach      N/A     79 N/A N/A W16         N/A
Matinecock PT    N/A     72 N/A N/A W25G33      N/A
Farmingdale    MOCLDY    82  58  43 NW10G23   29.96S
MacArthur/ISP  MOCLDY    81  59  47 NW15      29.95S
Shirley        NOT AVBL
Mt Sinai Harb    N/A     64 N/A N/A NW7         N/A
Westhampton    CLEAR     81  55  40 W23G33    29.97S
East Hampton     N/A     78  57  47 W13G18    29.94S
Montauk          N/A     73  56  54 W10G21    29.93F
$$

NYZ052-065-067-300000-
HUDSON VALLEY

CITY           SKY/WX    TMP DP  RH WIND       PRES   REMARKS
White Plains   CLOUDY    77  57  50 NW15      29.97S
Larchmont Harb   N/A     79 N/A N/A W17G24      N/A
Croton O-T Hud   N/A     73 N/A N/A NW13        N/A
Newburgh       NOT AVBL
Montgomery     CLOUDY    75  55  49 NW13      30.00R
Poughkeepsie   CLOUDY    75  55  49 NW12G18   29.97R
Albany         CLOUDY    61  42  49 W16       30.05F
$$

NJZ001-105-106-008-010-013-015-019>022-104-300000-
NEW JERSEY

CITY           SKY/WX    TMP DP  RH WIND       PRES   REMARKS
Newark/Liberty MOCLDY    81  58  45 W15       29.98S
Teterboro      CLOUDY    80  58  46 NW12      29.97R
Caldwell       PTCLDY    80  57  45 NW13      29.99S
Somerville     PTCLDY    80  60  50 MISG      29.99S
Linden           N/A     80  56  44 NW17G28   29.99S
Perth Amboy      N/A     81 N/A N/A W14         N/A
Sussex         CLEAR     76  58  53 W8        30.02R
Andover          N/A     75  56  51 MISG      30.02R
Trenton        CLOUDY    80  62  54 NW5       30.01R
Millville      CLOUDY    83  64  52 N6        30.03S
Atlantic City  PTCLDY    83  60  45 NW9       30.02S
Wrightstown    MOCLDY    81  61  50 W8        29.99S
Toms River     MOCLDY    82  61  48 W7        30.02S
Belmar         CLOUDY    81  60  48 W9        30.02R
$$

PAZ047>061-062-071-300000-
EASTERN PENNSYLVANIA

CITY           SKY/WX    TMP DP  RH WIND       PRES   REMARKS
Philadelphia   MOCLDY    83  59  44 W5        30.02F
Allentown      PTCLDY    79  61  53 W9        30.02S
Scranton       MOCLDY    68  57  68 N14G23    30.08R
$$

CTZ002-004>006-009-010-012-RIZ004-006-007-MAZ004-011-015-300000-
SOUTHERN NEW ENGLAND
 IN CT

CITY           SKY/WX    TMP DP  RH WIND       PRES   REMARKS
Bradley INTL   PTCLDY    72  53  51 N13       29.95F
Hartford       MOCLDY    74  54  49 N12       29.94S
Danbury        PTCLDY    77  57  50 NW13G23   29.98R
Wtrbury/Oxford PTCLDY    73  52  46 N12G17    29.99F
Bridgeport     PTCLDY    82  56  40 W13G25    29.94S
Meriden        PTCLDY    79  55  43 NW13      29.95R
New Haven      PTCLDY    79  57  46 NW8       29.93F
Chester          N/A     81  55  41 NW10G21   29.94S
Groton         PTCLDY    68  56  65 W6        29.89F
Wilimantic     PTCLDY    77  54  44 NW16G23   29.95R

 IN RI

CITY           SKY/WX    TMP DP  RH WIND       PRES   REMARKS
Providence     MOCLDY    80  56  43 NW14G24   29.91R
Block Island   PTCLDY    62  55  77 SW17      29.93S
Westerly       PTCLDY    67  56  67 W3        29.92R
 IN MA

CITY           SKY/WX    TMP DP  RH WIND       PRES   REMARKS
Boston         CLOUDY    76  52  43 W17G33    29.88S
Worcester      PTCLDY    68  47  46 W21G37    29.96F
Westfield      CLEAR     69  51  52 NW13G22   29.95F
Provincetown   CLOUDY    67  53  61 W24G30    29.89R
Nantucket      CLEAR     61  55  81 W20G28    29.91R
$$

ANZ330-335-338-340-345-350-353-355-300000-
COASTAL MARINE OBSERVATIONS


STATION/POSITION TIME  SKY/WX   TEMP    WIND        PRES    VSBY  WAVE
                                AIR SEA DIR/SP/G                  HT/PER
                 (UTC)          (F)     (DEG/KT/KT) (MB)    (MI)  (FT/S)
NY HARB ENTRANCE 2150            65 55  290/ 12/ 14 1015.8          3/ 7
20 S FIRE ISLAND 2250            57 50  230/ 10/ 10 1015.2          3/ 6
GREAT SOUTH BAY  2230            71 61  260/  8/ 14   N/A
23 SSW MONTAUK P 2150            54 48              1014.8          4/ 6
15 E BARNEGAT LI 2230               56                N/A           4/ 6
HUDSON CANYON    2150            55 50  230/ 12/ 14 1016.7          4/ 7
KINGS POINT      2230            76 54  330/ 17/ 21 1014.7
EXECUTION ROCKS  NOT AVBL
CENTRAL LI SOUND 2245            57     270/ 10/ 12   N/A           2/ 2
EASTERN LI SOUND NOT AVBL
ROBBINS REEF     2230            80     290/ 20/ 25 1015.3
$$


>>>>>>>>>>>>>>>>>>>>>>>>>>>> KEY <<<<<<<<<<<<<<<<<<<<<<<<<<<
>                                                          <
>     SKY/WX - Sky Condition/Present Weather               <
>     TMP    - Temperature in Fahrenheit                   <
>     DP     - Dew Point in Fahrenheit                     <
>     RH     - Relative Humidity in Percent                <
>     WIND   - Direction (from) and Speed in MPH           <
>     PRES   - Mean Sea Level Pressure (inches of Hg)      <
>     WCI    - Wind Chill Index                            <
>     VSB    - VISIBILITY IN MILES                         <
>     HX     - HEAT INDEX                                  <
>     TC     - TEMPERATURE IN CELSIUS                      <
>     VRB    - VARIABLE WIND DIRECTION                     <
>                                                          <
>>>>>>>>>>>>>>>>>>>>>>>>>>>> KEY <<<<<<<<<<<<<<<<<<<<<<<<<<<




USA.gov is the U.S. government's official web portal to all federal, state and local government web resources and services.